User: anonymous   Login
Location: Fort Wayne
(41.1310°N, 85.1290°W)
Time: 15:16:51
(UTC-05:00)
Language:

SR - Orbit

View from above orbital plane
View from above orbital plane
View from above satellite
View from above satellite

Ground track
Ground track

The orbit data is extracted from the following two-line orbital elements,

1 00046U 60007B   15062.42799376  .00001883  00000-0  40585-3 0  9999
2 00046 066.6897 227.2700 0207212 132.9140 228.9568 14.48308168859047
Epoch (UTC): 03 March 2015 10:16:18
Eccentricity: 0.0207212
inclination: 66.6897°
perigee height: 584 km
apogee height: 878 km
right ascension of ascending node: 227.2700°
argument of perigee: 132.9140°
revolutions per day: 14.48308168
mean anomaly at epoch: 228.9568°
orbit number at epoch: 85904

The dashed part of the orbit path shows where the satellite is in the earth's shadow,  

DLR